Eagle, AK

4:26 PM AKDT on August 31, 2016 (GMT -0800)
Eagle

Weather History for PAEG - September, 2012

Change the Weather History Date:

Tuesday, September 25, 2012

  Actual Average (PABN) Record (PABN)
Temperature  
Mean Temperature 40 °F -  
Max Temperature 57 °F 38 °F 53 °F (2002)
Min Temperature 24 °F 26 °F 19 °F (2014)
Degree Days  
Heating Degree Days 24    
Moisture  
Dew Point 28 °F    
Average Humidity 78    
Maximum Humidity 100    
Minimum Humidity 39    
Precipitation  
Precipitation 0.00 in - - ()
Sea Level Pressure  
Sea Level Pressure 29.76 in    
Wind  
Wind Speed 1 mph (SSE)    
Max Wind Speed 12 mph    
Max Gust Speed 22 mph    
Visibility 9 miles    
Events      
Averages and records for this station are not official NWS values.
T = Trace of Precipitation, MM = Missing Value Source: NWS Daily Summary

Daily Weather History Graph

Daily Weather History Graph

Search for Another Location

Airport or City:

Trip Planner

Search our weather history database for the weather conditions in past years. The results will help you decide how hot, cold, wet, or windy it might be!

Date:

Astronomy

Sep. 25, 2012 Rise Set
Actual Time 7:18 AM AKDT 7:12 PM AKDT
Civil Twilight 6:29 AM AKDT 8:00 PM AKDT
Nautical Twilight 5:30 AM AKDT 8:59 PM AKDT
Astronomical Twilight 4:23 AM AKDT 10:05 PM AKDT
Moon 5:52 PM AKDT (9/25) 1:20 AM AKDT (9/25)
Length of Visible Light 13h 31m
Length of Day
11h 53m
Waxing Gibbous, 81% of the Moon is Illuminated
Sep 25
Waxing Gibbous
Sep 29
Full
Oct 7
Last Quarter
Oct 15
New
Oct 21
First Quarter

Hourly Weather History & Observations

Time (AKDT) Temp. Dew Point Humidity Pressure Visibility Wind Dir Wind Speed Gust Speed Precip Events Conditions
12:53 AM 28.0 °F 26.1 °F 92% 29.91 in 10.0 mi Calm Calm - N/A   Clear
1:53 AM 28.0 °F 26.1 °F 92% 29.90 in 10.0 mi Calm Calm - N/A   Clear
2:53 AM 27.0 °F 24.1 °F 89% 29.90 in 10.0 mi Calm Calm - N/A   Clear
3:17 AM 26.6 °F 24.8 °F 93% 29.88 in 6.0 mi Calm Calm - N/A   Scattered Clouds
3:26 AM 26.6 °F 24.8 °F 93% 29.88 in 3.0 mi Calm Calm - N/A   Mostly Cloudy
3:48 AM 26.6 °F 24.8 °F 93% 29.87 in 10.0 mi Calm Calm - N/A   Scattered Clouds
3:53 AM 25.0 °F 23.0 °F 92% 29.90 in 10.0 mi Calm Calm - N/A   Partly Cloudy
4:53 AM 25.0 °F 24.1 °F 96% 29.89 in 10.0 mi Calm Calm - N/A   Clear
5:53 AM 24.1 °F 21.9 °F 91% 29.88 in 10.0 mi Calm Calm - N/A   Clear
6:22 AM 24.8 °F 24.8 °F 100% 29.84 in 10.0 mi Calm Calm - N/A   Scattered Clouds
6:53 AM 25.0 °F 23.0 °F 92% 29.87 in 10.0 mi Calm Calm - N/A   Partly Cloudy
7:29 AM 24.8 °F 23.0 °F 93% 29.83 in 8.0 mi Calm Calm - N/A   Mostly Cloudy
7:36 AM 24.8 °F 23.0 °F 93% 29.83 in 1.8 mi Calm Calm - N/A   Mostly Cloudy
7:45 AM 24.8 °F 23.0 °F 93% 29.83 in 0.8 mi Calm Calm - N/A   Mist
7:49 AM 24.8 °F 24.8 °F 100% 29.83 in 4.0 mi Calm Calm - N/A   Mostly Cloudy
7:53 AM 25.0 °F 24.1 °F 96% 29.86 in 10.0 mi Calm Calm - N/A   Scattered Clouds
8:53 AM 32.0 °F 30.0 °F 92% 29.84 in 10.0 mi Calm Calm - N/A   Clear
9:53 AM 48.9 °F 36.0 °F 61% 29.81 in 10.0 mi SSE 11.5 mph 20.7 mph N/A   Clear
11:53 AM 51.1 °F 34.0 °F 52% 29.79 in 10.0 mi SSE 9.2 mph 18.4 mph N/A   Clear
12:53 PM 52.0 °F 34.0 °F 50% 29.76 in 10.0 mi SSE 9.2 mph 20.7 mph N/A   Clear
1:53 PM 55.9 °F 34.0 °F 44% 29.72 in 10.0 mi SSE 8.1 mph 21.9 mph N/A   Clear
2:53 PM 57.0 °F 33.1 °F 40% 29.68 in 10.0 mi SSE 8.1 mph 20.7 mph N/A   Clear
3:53 PM 57.0 °F 32.0 °F 39% 29.65 in 10.0 mi SSE 9.2 mph 18.4 mph N/A   Clear
4:53 PM 55.9 °F 30.9 °F 39% 29.64 in 10.0 mi SSE 9.2 mph - N/A   Clear
5:53 PM 54.0 °F 32.0 °F 43% 29.62 in 10.0 mi ESE 4.6 mph - N/A   Clear
6:53 PM 48.0 °F 33.1 °F 56% 29.58 in 10.0 mi Calm Calm - N/A   Clear
7:53 PM 37.0 °F 28.9 °F 73% 29.56 in 10.0 mi Calm Calm - N/A   Clear
8:53 PM 35.1 °F 28.0 °F 76% 29.52 in 10.0 mi Calm Calm - N/A   Partly Cloudy
9:53 PM 34.0 °F 28.9 °F 82% 29.49 in 10.0 mi Calm Calm - N/A   Clear
10:53 PM 34.0 °F 28.9 °F 82% 29.48 in 10.0 mi Calm Calm - N/A   Mostly Cloudy
11:53 PM 32.0 °F 28.0 °F 85% 29.47 in 10.0 mi Calm Calm - N/A   Partly Cloudy